Lapse_Rate
5.5 5.5 5.6 5.7 5.8 5.9 5.9 6.1 6.2 6.2 6.2 6.3 6.3 6.3 6.4 6.5 6.6 6.6 6.5 6.4 6.4 6.5 6.6 6.6 6.6 6.6 6.6 6.5 6.3 6.2 6.1 6.3 6.5 6.9 7.0 6.9 6.9 7.3 7.4 7.5 7.9 7.8 8.1 8.1 7.7 8.1 8.4
5.6 5.7 5.7 5.7 5.8 5.9 6.0 6.1 6.2 6.3 6.3 6.3 6.4 6.4 6.5 6.6 6.7 6.7 6.6 6.4 6.4 6.4 6.5 6.7 6.7 6.8 6.7 6.6 6.2 6.1 6.2 6.4 6.4 6.9 6.8 6.7 7.0 7.2 7.3 7.4 7.8 7.6 8.3 8.5 8.3 8.1 8.5
5.7 5.7 5.8 5.8 5.8 5.9 6.0 6.1 6.2 6.4 6.5 6.4 6.4 6.4 6.5 6.7 6.8 6.7 6.6 6.4 6.3 6.4 6.5 6.7 6.8 6.9 6.9 6.5 6.3 6.5 6.4 6.4 6.6 6.8 6.7 6.6 6.8 6.7 7.3 7.7 7.5 7.9 8.6 8.5 8.4 8.1 8.6
5.8 5.9 5.9 5.9 5.9 5.9 6.0 6.1 6.2 6.3 6.5 6.6 6.5 6.5 6.5 6.6 6.8 6.8 6.7 6.5 6.3 6.4 6.6 6.6 6.9 7.0 6.9 6.3 6.4 6.8 6.5 6.5 6.7 6.6 6.5 6.8 6.9 7.0 7.0 7.5 7.7 8.1 8.3 8.5 8.3 8.4 8.5
5.9 6.0 6.0 6.0 6.1 6.1 6.1 6.1 6.2 6.3 6.4 6.6 6.6 6.5 6.5 6.6 6.7 6.8 6.7 6.6 6.5 6.5 6.6 6.6 7.0 7.1 6.7 6.7 7.0 6.8 6.8 6.6 6.6 6.5 6.8 6.9 6.8 7.3 7.3 7.8 8.2 8.2 8.5 8.7 9.0 8.9 8.6
6.1 6.0 6.1 6.2 6.2 6.2 6.2 6.2 6.3 6.4 6.4 6.5 6.6 6.6 6.6 6.6 6.7 6.8 6.7 6.6 6.4 6.4 6.5 6.6 6.9 7.1 7.0 7.1 6.8 6.8 6.7 6.5 6.6 6.5 6.8 7.0 7.0 7.5 7.8 8.2 8.2 8.3 8.7 8.8 9.0 8.6 9.0
6.1 6.2 6.1 6.2 6.3 6.4 6.4 6.4 6.4 6.4 6.5 6.5 6.6 6.6 6.6 6.6 6.7 6.8 6.7 6.5 6.4 6.5 6.7 6.6 6.9 6.9 6.9 6.8 6.5 6.8 6.6 6.5 6.5 6.5 6.9 7.1 7.1 8.0 8.5 8.2 8.3 8.5 8.7 9.1 9.1 8.7 9.4
6.2 6.2 6.2 6.2 6.2 6.3 6.4 6.6 6.5 6.5 6.6 6.6 6.6 6.6 6.7 6.6 6.8 6.8 6.7 6.2 6.5 6.7 6.7 7.1 7.1 6.8 6.8 6.5 6.5 6.6 6.5 6.4 6.5 6.7 6.9 7.1 7.6 8.7 8.5 8.2 8.4 8.6 8.8 8.7 8.4 8.9 9.0
6.2 6.2 6.3 6.3 6.3 6.4 6.4 6.5 6.6 6.6 6.6 6.7 6.7 6.7 6.7 6.7 6.8 6.9 6.5 6.1 6.4 6.4 6.3 6.8 7.1 7.0 6.7 6.6 6.9 6.7 6.5 6.7 6.7 6.8 6.9 7.3 8.5 8.6 8.1 8.8 8.8 9.0 8.9 8.7 9.0 8.8 9.0
6.2 6.2 6.2 6.3 6.4 6.4 6.4 6.4 6.5 6.7 6.6 6.7 6.8 6.8 6.9 6.8 6.8 6.9 6.5 6.0 5.8 6.1 6.3 6.9 7.2 7.0 6.8 6.7 6.8 6.7 6.7 6.8 6.8 7.2 7.4 7.4 8.1 8.1 8.3 8.7 9.1 9.0 8.8 8.8 9.4 9.2 8.9
6.1 6.0 6.1 6.3 6.4 6.5 6.5 6.4 6.4 6.5 6.6 6.7 6.8 6.8 6.9 7.0 6.9 6.7 6.4 6.1 6.0 6.4 5.7 7.2 7.3 7.2 7.0 7.1 7.1 6.7 6.7 6.7 7.0 7.3 7.0 7.9 7.8 7.9 8.7 9.2 9.2 9.0 9.0 9.5 9.4 9.2 9.1
5.9 6.0 6.1 6.3 6.4 6.4 6.4 6.3 6.4 6.4 6.6 6.7 6.8 6.9 7.1 7.1 6.7 6.5 6.4 6.2 6.1 6.5 6.3 7.6 7.5 7.6 7.0 7.3 7.1 7.0 6.8 6.9 7.1 7.0 7.0 7.1 7.3 7.4 8.7 9.1 9.1 8.9 9.0 9.4 9.2 8.9 7.3
6.0 6.2 6.2 6.2 6.2 6.2 6.3 6.2 6.3 6.5 6.5 6.7 6.9 7.0 7.1 7.1 6.9 6.6 6.5 6.7 6.6 6.5 7.5 8.2 8.0 7.7 7.5 7.3 7.1 6.9 6.9 6.9 6.9 7.0 7.2 7.7 8.0 8.2 8.4 8.6 9.1 9.0 8.8 8.9 8.3 7.8 6.7
6.0 6.0 6.0 5.9 5.8 5.8 6.1 6.3 6.3 6.4 6.6 6.7 6.9 7.0 7.2 7.1 6.8 6.5 6.4 6.8 6.8 7.7 7.7 7.8 8.0 7.8 7.6 7.5 7.4 7.3 7.1 7.2 7.2 7.0 7.1 7.1 8.1 8.7 9.0 9.0 8.8 9.1 9.1 8.9 7.9 7.0 6.4
5.8 5.9 5.8 5.8 5.9 6.0 6.2 6.3 6.3 6.4 6.6 6.8 6.9 7.2 7.1 7.1 6.9 6.5 6.5 6.6 8.0 7.6 7.6 7.8 7.7 7.7 7.7 7.6 7.6 7.7 7.3 7.5 7.7 7.3 7.0 7.2 8.0 8.3 8.5 9.0 9.0 8.9 9.0 9.4 9.1 7.7 7.4
5.9 5.9 5.9 5.8 5.9 6.3 6.4 6.4 6.4 6.5 6.7 6.9 7.2 7.2 7.1 7.1 6.9 6.6 6.5 7.5 8.2 7.7 7.9 8.0 8.0 8.1 8.5 7.9 7.7 7.7 7.6 7.7 7.6 7.8 7.6 7.6 7.6 8.7 9.1 8.9 9.1 9.1 9.4 9.3 9.2 6.8 6.9
5.8 5.8 5.8 5.8 6.0 6.4 6.6 6.6 6.4 6.5 6.7 7.0 7.1 7.1 6.9 6.8 6.6 6.6 6.8 7.7 8.2 7.8 7.7 8.2 8.3 8.9 8.9 8.8 8.5 8.4 8.5 8.1 8.3 8.4 8.0 7.9 8.2 8.9 8.9 8.9 9.1 9.0 8.7 8.9 9.2 8.9 6.9
5.9 5.9 5.9 5.9 6.2 6.4 6.6 6.7 6.5 6.5 6.8 6.8 6.8 6.9 6.7 6.5 6.7 6.7 7.3 8.1 8.3 8.2 8.1 8.4 8.7 9.1 8.6 9.5 9.3 9.1 9.3 9.2 9.3 9.3 8.5 8.3 8.8 9.3 9.1 9.3 9.2 8.9 8.6 8.4 8.5 8.8 8.2
6.3 6.0 5.9 6.0 6.2 6.3 6.5 6.6 6.5 6.6 6.8 6.6 6.7 6.7 6.4 6.3 6.7 7.1 7.4 7.5 7.8 8.4 8.5 7.8 8.5 8.8 9.1 9.4 9.2 9.2 9.5 8.9 9.4 9.0 8.6 8.4 9.1 9.3 8.9 9.1 9.3 8.9 9.1 8.8 8.5 8.9 8.6
6.2 6.1 5.9 5.9 6.0 6.2 6.3 6.5 6.5 6.6 6.9 6.7 6.7 6.5 6.5 6.7 6.7 7.0 7.4 7.6 8.2 8.6 8.6 9.2 8.6 8.6 9.1 9.2 9.2 8.9 9.2 9.0 9.1 9.4 9.3 9.3 9.0 8.9 8.6 8.4 8.5 8.7 9.0 9.0 8.8 8.7 8.6
5.9 5.9 5.8 5.8 5.8 6.0 6.2 6.3 6.5 6.7 6.8 7.0 7.2 7.0 7.0 6.7 6.7 6.9 7.4 8.3 8.3 8.5 8.4 8.5 8.4 8.7 8.5 8.4 8.9 8.9 8.8 8.9 8.9 9.0 9.1 9.2 9.0 8.8 8.6 8.4 8.5 8.3 8.6 9.0 8.9 8.7 8.5
5.7 5.7 5.7 5.7 5.7 5.8 6.0 6.2 6.5 6.7 6.7 6.9 7.1 7.3 7.3 7.1 6.8 7.4 8.3 8.1 7.9 8.4 8.2 7.9 8.2 8.4 8.1 8.5 8.3 8.7 8.5 8.7 8.5 8.2 8.4 8.7 8.5 8.8 8.6 8.4 8.2 8.3 8.6 8.4 8.6 8.5 8.4
5.6 5.6 5.5 5.6 5.7 5.7 5.7 6.0 6.3 6.7 6.8 6.9 7.1 7.3 7.3 7.3 7.2 7.5 7.7 7.6 8.3 8.3 7.9 8.0 8.0 8.1 8.3 7.7 8.2 8.3 8.5 8.3 8.2 8.3 8.0 8.3 8.4 8.4 8.5 8.4 8.3 8.4 7.9 7.9 8.0 8.1 8.1
5.4 5.4 5.4 5.5 5.6 5.7 5.7 5.7 6.0 6.4 6.7 6.8 7.0 7.2 7.4 7.4 7.4 7.9 7.6 7.9 7.8 7.9 8.1 8.0 8.0 8.1 7.9 7.7 7.7 8.0 8.1 8.0 7.9 7.9 7.8 8.5 8.4 8.2 8.1 8.0 7.6 7.5 8.0 8.2 7.9 7.2 7.5
5.2 5.3 5.2 5.3 5.4 5.5 5.5 5.6 5.7 5.9 6.3 6.5 6.7 6.9 7.2 7.3 7.6 7.7 7.8 7.7 7.5 7.5 8.2 8.1 8.2 8.0 8.2 7.9 7.6 7.7 7.5 7.2 7.8 7.7 7.7 8.5 8.5 8.4 8.1 8.0 7.6 7.6 7.4 7.5 8.1 6.7 6.5
5.1 5.2 5.1 5.1 5.2 5.2 5.3 5.3 5.5 5.6 5.9 6.2 6.4 6.8 7.0 7.3 7.3 7.6 7.9 7.9 8.0 7.6 7.7 7.4 7.5 7.7 8.1 8.0 8.0 8.3 8.1 8.4 8.5 8.7 9.1 8.7 8.5 8.1 8.0 7.9 7.0 7.6 7.4 7.5 7.4 6.5 6.4
5.1 5.1 5.1 5.1 5.2 5.2 5.2 5.2 5.3 5.5 5.7 5.9 6.3 6.5 6.7 7.0 6.9 7.3 7.8 7.6 7.9 8.2 7.9 7.9 7.8 7.8 7.8 8.0 8.2 8.1 8.4 8.7 8.6 8.7 8.7 8.6 8.3 8.0 8.3 7.8 6.8 7.5 7.4 7.4 7.3 6.6 6.5
5.0 5.1 5.1 5.2 5.3 5.3 5.3 5.3 5.2 5.3 5.6 5.8 5.9 6.2 6.6 6.7 6.7 7.4 7.6 7.4 7.7 7.9 7.8 7.7 7.7 7.5 7.5 7.6 7.7 7.8 8.0 8.4 8.5 8.6 8.6 8.5 8.2 8.1 8.1 7.7 7.0 7.5 7.7 7.3 7.4 7.2 7.0
5.0 5.1 5.2 5.3 5.4 5.4 5.5 5.5 5.4 5.4 5.5 5.7 6.0 6.1 6.3 6.5 6.6 7.2 7.2 7.1 7.2 7.2 7.4 7.3 7.4 7.3 7.2 7.5 8.1 8.2 8.3 8.2 8.3 8.5 8.6 8.4 8.4 8.2 7.9 7.5 7.2 7.3 7.6 7.5 7.2 6.9 7.0
Wind_Speed
21 22 22 22 21 21 20 19 19 18 18 18 17 15 13 12 11 11 11 11 11 10 11 11 11 13 3 1 9 6 5 9 7 3 5 3 5 1 4 8 2 6 2 5 4 7 5
22 22 22 22 22 21 21 20 20 20 19 19 18 16 14 12 12 11 11 11 11 10 10 10 10 11 1 3 5 8 7 3 4 4 6 4 7 5 10 5 4 3 3 6 4 5 2
22 22 22 22 22 22 22 21 21 21 21 20 19 17 15 13 12 11 11 12 11 10 9 9 8 4 2 14 2 8 4 5 6 5 4 6 5 2 5 9 6 9 2 7 7 1 2
23 23 23 23 23 22 22 22 22 22 21 21 20 18 17 14 12 11 11 11 11 10 9 7 5 2 8 6 9 8 5 9 6 7 7 11 6 4 3 6 8 5 5 4 6 8 3
23 24 24 23 23 23 23 22 22 23 22 22 21 19 18 15 11 10 11 11 11 10 8 6 1 2 10 11 5 10 9 7 6 6 7 10 0 1 6 3 6 5 2 2 7 9 4
23 23 24 24 24 24 24 24 23 23 23 22 22 21 17 14 10 10 11 10 8 10 4 5 6 2 5 5 4 4 4 4 5 5 4 3 5 2 4 5 4 4 2 2 4 4 13
24 24 24 25 25 25 25 25 25 24 23 24 22 21 17 13 9 8 6 1 3 2 2 8 8 4 4 4 3 4 8 4 1 2 5 5 2 8 11 8 10 7 5 4 7 6 6
24 24 24 26 26 26 26 26 25 25 23 24 23 18 17 12 8 6 1 3 5 4 7 19 12 9 12 3 4 8 6 4 4 6 3 4 7 16 9 10 10 11 4 4 4 4 1
24 24 25 25 27 27 27 27 27 25 25 24 24 19 18 10 4 0 3 9 5 10 1 5 9 7 7 9 8 11 10 7 4 5 6 8 14 6 10 12 13 6 4 4 7 3 5
25 26 25 25 26 27 28 28 28 28 25 24 24 21 17 4 2 3 5 8 6 2 5 5 5 8 6 7 5 9 11 8 5 10 7 7 17 14 13 12 7 3 8 11 1 5 1
26 26 26 26 27 29 30 29 28 28 26 25 24 19 14 9 4 3 3 8 8 4 3 4 4 2 5 8 3 8 7 4 12 8 6 9 3 5 9 8 6 9 8 2 4 6 4
27 27 27 28 28 29 29 30 30 29 28 28 24 17 6 3 2 8 17 6 4 4 5 3 7 7 6 2 2 5 7 4 3 3 5 11 6 6 6 7 6 6 3 7 5 5 4
28 28 28 28 29 29 30 30 31 31 32 30 24 15 6 4 4 8 5 4 5 3 6 4 5 7 6 6 5 5 9 10 9 3 5 7 8 7 5 3 6 3 7 3 4 4 1
28 28 29 30 30 30 30 30 32 33 36 33 28 10 9 7 5 10 3 5 3 5 6 4 4 9 7 7 8 8 8 9 6 5 3 2 8 3 3 7 7 3 9 5 5 5 3
28 29 29 31 31 32 31 31 33 36 37 35 23 2 3 6 17 1 5 3 7 6 2 1 4 5 4 5 5 6 11 15 10 9 8 4 6 6 11 5 10 5 2 8 7 4 4
29 29 30 31 32 33 31 32 34 37 38 39 2 2 4 6 18 3 4 5 5 5 2 2 3 4 8 9 7 7 9 10 7 13 9 6 5 9 4 4 1 7 3 1 3 6 5
29 30 31 31 32 33 32 33 34 36 40 26 1 2 3 15 5 5 3 6 6 8 7 2 4 5 9 7 9 7 11 6 20 12 10 6 2 7 5 6 10 5 4 3 5 4 5
29 31 31 32 32 33 34 34 34 36 36 7 3 3 5 8 4 2 3 4 5 7 6 11 11 21 10 12 9 8 11 10 12 13 10 10 6 3 3 3 5 6 6 5 5 5 3
29 31 32 32 33 33 33 35 35 33 23 3 2 2 2 5 3 2 6 5 7 12 18 8 6 8 2 3 5 3 5 7 7 6 11 5 2 3 9 6 5 5 3 5 3 4 4
29 31 31 33 33 34 33 36 37 39 33 5 1 3 3 3 1 1 4 8 6 6 13 11 3 6 4 5 11 5 7 7 6 4 3 9 3 7 6 6 3 1 1 4 6 4 1
29 30 31 31 32 33 34 35 37 42 33 1 1 1 2 3 4 7 2 6 13 9 4 13 9 6 7 5 4 4 5 5 7 9 4 5 4 2 4 5 2 4 2 5 4 5 6
29 30 31 31 31 32 33 34 35 40 36 3 3 3 4 3 4 6 3 2 5 9 2 6 4 7 5 7 6 6 5 3 3 9 7 6 0 3 7 3 5 6 9 3 3 7 9
28 29 30 31 31 32 32 32 32 33 23 3 3 4 3 5 5 4 5 7 12 6 3 5 4 6 11 3 5 5 5 4 5 4 6 2 3 3 3 1 3 4 7 3 6 5 16
28 28 29 29 29 31 30 30 29 27 21 2 3 1 3 4 2 3 6 9 15 9 5 0 6 6 3 11 10 8 5 6 5 15 10 3 3 3 3 4 1 4 5 17 20 13 13
27 27 28 28 28 29 28 27 27 27 24 3 3 2 2 3 4 6 12 8 5 8 5 1 3 4 1 7 5 4 2 4 9 11 13 4 5 2 4 4 3 4 5 1 18 9 9
26 27 28 28 28 28 27 27 27 26 25 3 3 2 1 1 3 5 4 4 3 5 7 2 5 7 7 3 3 4 6 8 5 3 2 6 6 5 3 4 6 5 1 5 4 6 3
26 26 27 27 27 27 28 28 27 25 22 7 3 3 2 1 4 5 3 3 4 3 0 4 7 7 4 2 2 3 3 2 3 7 5 2 2 5 4 3 1 2 6 3 4 7 4
25 26 26 26 27 27 27 27 26 24 21 8 5 5 2 2 6 3 3 3 5 3 2 5 5 5 5 4 2 3 3 4 2 3 7 6 6 3 3 5 4 1 3 5 6 4 7
25 26 26 26 26 27 27 26 24 21 17 11 3 4 2 3 6 4 13 13 9 12 3 3 4 3 3 3 1 1 2 2 2 2 5 1 5 6 4 4 3 6 12 6 7 8 5
Wind_Direction
19 17 15 12 8 7 5 2 358 353 349 345 339 332 325 317 310 304 300 295 300 302 313 319 323 328 344 354 253 261 137 131 125 171 225 243 301 55 256 301 308 212 296 335 322 259 216
18 15 15 11 7 7 3 360 357 353 349 345 341 334 326 319 310 302 297 294 299 301 307 314 319 324 289 255 248 173 143 156 158 198 247 142 241 235 269 301 2 282 276 294 295 283 245
16 12 9 8 6 5 2 359 356 353 349 345 341 336 329 320 310 300 294 292 298 298 300 306 313 301 275 232 101 35 156 226 178 199 240 238 245 283 320 327 343 296 357 330 293 307 271
11 10 8 6 3 1 359 357 355 352 349 347 342 337 329 320 310 301 293 294 293 290 292 289 298 298 247 249 263 290 205 264 243 220 211 259 284 283 61 314 344 310 54 12 293 332 318
7 5 4 3 2 359 357 355 353 351 349 346 343 338 330 321 311 302 297 295 290 285 267 265 252 188 266 307 169 239 169 220 237 266 266 272 308 303 352 46 354 356 250 245 312 341 117
5 2 360 359 357 356 354 354 350 348 347 346 344 339 334 324 313 304 304 290 290 306 220 213 256 339 274 240 216 217 249 182 222 219 318 347 47 14 337 77 244 263 267 272 265 4 97
2 0 358 356 355 353 352 351 349 346 346 345 343 341 337 329 316 316 333 75 56 10 250 196 195 238 277 257 113 213 229 360 119 98 202 279 75 241 248 217 243 256 265 310 305 183 81
359 358 356 354 353 352 350 347 347 345 344 343 342 338 331 326 313 311 335 184 204 156 281 224 228 256 279 59 309 231 118 155 135 209 182 6 245 242 258 282 272 238 257 220 290 302 86
357 357 354 353 352 351 348 347 345 344 342 341 340 338 332 311 314 243 224 224 98 21 244 268 197 219 236 138 209 221 140 188 214 219 195 191 242 253 231 261 270 247 203 251 200 204 69
356 355 354 352 350 349 347 345 342 343 340 339 339 337 331 292 335 219 242 265 203 121 31 263 197 253 202 188 204 204 182 157 203 213 214 223 254 249 267 249 174 275 234 234 201 96 42
357 355 354 352 351 350 347 345 341 340 337 336 335 336 327 217 321 215 212 15 133 60 354 166 171 234 189 166 149 220 172 160 215 233 114 243 264 242 217 213 160 230 279 27 115 93 63
356 355 355 353 352 349 347 344 343 339 334 332 332 332 314 192 242 250 294 314 66 53 260 230 147 174 128 243 274 160 173 164 212 242 255 263 256 225 237 223 185 220 246 68 53 95 53
357 355 354 354 350 347 346 343 342 337 329 328 326 315 223 222 215 336 281 68 57 146 322 209 174 146 162 183 227 149 185 212 204 152 291 315 293 284 207 164 346 93 57 352 22 40 235
356 354 353 352 350 348 344 341 342 337 329 330 322 292 222 236 266 352 28 60 137 251 263 309 122 148 175 174 224 193 146 211 242 118 57 267 320 204 220 174 189 208 152 158 194 165 159
355 353 352 351 349 348 343 341 343 338 334 334 325 145 239 244 216 274 69 86 208 227 237 322 73 149 250 235 164 146 176 200 212 168 176 194 259 277 217 171 140 274 189 194 106 42 101
353 352 351 349 349 348 344 344 344 340 339 335 317 210 245 147 144 96 77 234 231 227 191 181 123 181 200 232 171 160 179 207 218 205 174 236 281 267 217 93 273 171 189 304 358 137 141
352 352 352 348 347 347 346 347 346 344 341 333 338 22 269 130 107 56 164 240 283 273 261 97 226 201 230 195 194 198 203 247 200 213 153 174 140 292 79 180 205 34 15 45 122 143 146
351 351 351 349 347 347 349 349 348 347 346 22 326 42 172 129 81 172 212 222 308 280 286 293 294 281 244 219 180 203 204 206 197 202 159 199 176 228 244 309 150 106 143 113 105 285 83
351 350 351 350 349 348 347 349 348 344 355 321 357 285 270 86 127 265 284 275 236 260 274 274 271 250 11 133 89 43 161 330 149 120 170 196 326 24 352 357 20 107 136 156 160 96 214
350 351 351 351 349 350 349 352 350 343 344 162 60 59 333 16 179 217 323 280 256 263 255 243 251 338 113 73 48 50 16 342 354 66 81 86 88 144 181 207 185 279 113 115 107 97 244
351 351 351 350 349 352 353 354 354 349 354 89 67 68 193 326 337 311 229 274 288 302 355 10 18 340 134 53 52 36 335 342 13 11 18 88 96 154 218 226 196 240 349 140 154 185 144
350 350 351 352 349 350 355 356 359 357 349 13 60 55 345 287 295 298 346 316 297 279 31 334 49 341 56 137 155 176 196 356 129 331 19 353 167 63 9 278 335 312 290 200 211 118 90
349 349 348 347 348 349 353 356 1 8 4 17 323 332 114 263 323 22 339 302 319 121 336 73 71 58 62 161 158 152 166 185 182 88 312 72 104 66 284 137 214 1 283 333 59 180 141
347 347 347 347 348 349 351 355 358 6 17 272 264 344 31 292 345 315 330 333 17 352 137 260 70 90 160 103 67 33 1 102 9 293 229 156 89 98 207 33 47 244 45 94 80 49 97
346 347 347 348 347 345 346 348 353 358 1 332 282 27 36 305 310 324 356 344 348 2 27 308 213 217 136 121 103 73 351 250 229 214 263 160 125 110 141 163 282 2 0 66 108 39 47
344 345 344 343 340 342 343 346 349 352 356 332 281 244 45 95 238 303 326 340 0 345 6 337 328 275 69 89 94 185 179 211 219 159 209 92 96 126 117 162 200 233 157 153 106 69 42
341 341 339 338 338 339 341 345 347 350 352 343 281 282 73 352 264 15 1 343 330 357 148 320 331 343 53 82 112 165 246 234 237 162 194 90 27 150 134 125 267 262 311 327 127 189 131
332 334 337 334 333 334 337 341 344 347 348 356 278 263 97 286 281 268 353 7 341 23 80 284 21 359 14 54 115 243 182 258 242 214 184 155 139 180 91 94 232 299 24 122 170 137 120
331 331 331 331 330 330 333 337 339 341 342 349 293 315 344 180 248 275 274 244 204 229 141 328 184 228 233 69 345 280 321 0 102 214 25 83 180 151 152 180 264 61 107 115 134 112 92